Location: Brachbach
(49.1847°N, 9.7240°E)
Time: 08:51:27
(UTC+00:00)

CZ-6A DEB - Visible Passes

Search period start: 07 October 2024 00:00
Search period end: 17 October 2024 00:00
Orbit: 821 x 967 km, 98.8° (Epoch: 06 October)

Date Brightness Start Highest point End Pass type
(mag) Time Alt. Az. Time Alt. Az. Time Alt. Az.
07 Oct ? 03:37:46 10° NNE 03:43:05 31° E 03:48:24 10° SSE visible
08 Oct ? 03:38:45 10° NNE 03:44:06 31° E 03:49:28 10° SSE visible
09 Oct ? 03:39:43 10° NNE 03:45:07 32° E 03:50:30 10° SSE visible
10 Oct ? 03:40:42 10° NNE 03:46:07 33° E 03:51:32 10° SSE visible
11 Oct ? 03:41:40 10° NNE 03:47:07 33° E 03:52:33 10° SSE visible
12 Oct ? 03:42:37 10° NNE 03:48:06 34° E 03:53:33 10° SSE visible
12 Oct ? 17:03:39 10° SW 17:07:16 17° W 17:10:58 10° NW visible
13 Oct ? 03:43:34 10° NNE 03:49:05 34° E 03:54:34 10° SSE visible
13 Oct ? 17:04:40 10° SW 17:08:14 17° W 17:11:54 10° NW visible
14 Oct ? 03:44:30 10° NNE 03:50:04 35° E 03:55:33 10° SSE visible
14 Oct ? 17:05:40 10° SW 17:09:11 17° W 17:12:49 10° NW visible
15 Oct ? 03:45:26 10° NNE 03:51:01 36° E 03:56:31 10° SSE visible
15 Oct ? 17:06:39 10° WSW 17:10:09 16° W 17:13:43 10° NW visible
16 Oct ? 03:46:22 10° NNE 03:51:57 36° E 03:57:30 10° SSE visible
16 Oct ? 17:07:38 10° WSW 17:11:05 16° W 17:14:37 10° NW visible
